Location: Coopersdale
(40.3556°N, 78.9372°W)
Time: 00:52:26
(UTC+00:00)

Tiros 1 - Pass Details

Date: 24 January 2021
Orbit: 630 x 664 km, 48.4° (Epoch: 06 March)

Event Time Altitude Azimuth Distance (km) Brightness Sun altitude
Rises 22:43:15 0° 232° (SW) 2,929 12.3 -4.1°
Reaches altitude 10° 22:45:35 10° 230° (SW) 2,017 11.2 -4.5°
Maximum altitude 22:50:13 74° 147° (SSE) 662 7.2 -5.3°
Drops below altitude 10° 22:54:49 10° 62° (ENE) 2,011 9.0 -6.1°
Enters shadow 22:55:24 - 62° (ENE) 2,233 9.2 -6.2°
